Location: Bushrod
(6.3500°N, 10.7833°W)
Time: 02:02:28
(UTC+00:00)

Cosmos 2082 - Pass Details

Date: 17 September 2019
Orbit: 834 x 855 km, 71.0° (Epoch: 22 October)

Event Time Altitude Azimuth Distance (km) Brightness Sun altitude
Rises 20:28:44 0° 196° (SSW) 3,405 7.0 -27.3°
Reaches altitude 10° 20:31:10 10° 196° (SSW) 2,471 6.2 -27.9°
Enters shadow 20:35:39 58° 197° (SSW) 987 4.0 -29.0°
